KB1QVF Weather Reports


time (UTC)temp
F
wind
direction
speed
knots
gust
knots
rain 1hr
in
rain 24hr
in
rain mn
in
humidity
%
barometer
mb
20260505011353 54 163 6.1 7.8 0.00 0.00 0.00 66 1013.2
20260505010849 54 183 3.5 8.7 0.00 0.00 0.00 65 1013.1
20260505010345 55 181 5.2 6.1 0.00 0.00 0.00 64 1012.9
20260505005841 55 152 3.5 6.1 0.00 0.00 0.00 63 1013.0
20260505005338 55 182 4.3 8.7 0.00 0.00 0.00 63 1013.0
20260505004836 55 20 0.9 8.7 0.00 0.00 0.00 62 1012.9
20260505004332 55 300 1.7 7.8 0.00 0.00 0.00 61 1012.4
20260505003830 55 149 7.8 8.7 0.00 0.00 0.00 60 1012.5
20260505003327 55 120 3.5 7.0 0.00 0.00 0.00 60 1012.3
20260505002822 55 217 6.1 7.8 0.00 0.00 0.00 59 1012.4
20260505002320 56 303 1.7 7.0 0.00 0.00 0.00 58 1012.4
20260505001818 56 265 10.4 13.0 0.00 0.00 0.00 58 1012.3
20260505001314 56 135 7.8 9.6 0.00 0.00 0.00 57 1012.0
20260505000812 56 108 3.5 13.0 0.00 0.00 0.00 57 1012.0
20260505000310 57 189 5.2 9.6 0.00 0.00 0.00 56 1011.8
20260504235806 57 59 1.7 7.8 0.00 0.00 0.00 55 1011.8
20260504235304 57 225 6.1 7.8 0.00 0.00 0.00 54 1012.0
20260504234800 58 263 6.1 15.6 0.00 0.00 0.00 53 1011.8
20260504234257 58 163 10.4 13.0 0.00 0.00 0.00 52 1011.8
20260504233753 58 131 7.0 11.3 0.00 0.00 0.00 52 1011.8
20260504233249 58 140 8.7 13.9 0.00 0.00 0.00 51 1011.7
20260504232746 59 204 7.0 7.8 0.00 0.00 0.00 50 1011.8
20260504232243 59 172 4.3 7.8 0.00 0.00 0.00 49 1011.7
20260504231740 60 159 5.2 13.0 0.00 0.00 0.00 48 1011.4
20260504231237 60 233 2.6 7.0 0.00 0.00 0.00 48 1011.4
20260504230732 60 354 1.7 8.7 0.00 0.00 0.00 47 1011.3
20260504230231 61 28 2.6 9.6 0.00 0.00 0.00 47 1011.4
20260504225730 61 148 6.1 12.2 0.00 0.00 0.00 46 1011.3
20260504225225 62 266 5.2 8.7 0.00 0.00 0.00 45 1011.3
20260504224723 62 194 7.8 12.2 0.00 0.00 0.00 44 1011.1
20260504224220 62 233 7.8 13.0 0.00 0.00 0.00 44 1011.3
20260504223716 62 141 9.6 16.5 0.00 0.00 0.00 45 1011.1
20260504223212 62 123 1.7 6.1 0.00 0.00 0.00 45 1011.1
20260504222709 62 166 6.1 13.9 0.00 0.00 0.00 45 1011.1
20260504222206 62 178 9.6 13.0 0.00 0.00 0.00 45 1010.9
20260504221703 62 225 5.2 11.3 0.00 0.00 0.00 45 1011.0
20260504221200 63 93 6.1 14.8 0.00 0.00 0.00 44 1011.0
20260504220656 63 193 11.3 20.0 0.00 0.00 0.00 43 1010.9
20260504220154 64 38 3.5 13.0 0.00 0.00 0.00 44 1011.2
20260504215650 64 110 9.6 13.9 0.00 0.00 0.00 43 1010.9
20260504215148 64 91 6.1 19.1 0.00 0.00 0.00 43 1011.1
20260504214643 64 138 6.1 16.5 0.00 0.00 0.00 42 1010.7
20260504214140 65 130 6.1 7.8 0.00 0.00 0.00 40 1010.8
20260504213637 65 136 9.6 19.1 0.00 0.00 0.00 40 1011.0
20260504213133 66 147 8.7 13.0 0.00 0.00 0.00 39 1010.9
20260504212630 66 203 12.2 14.8 0.00 0.00 0.00 39 1010.7
20260504212127 66 45 1.7 11.3 0.00 0.00 0.00 39 1010.9
20260504211625 66 10 0.9 14.8 0.00 0.00 0.00 40 1010.9
20260504211120 65 192 1.7 15.6 0.00 0.00 0.00 39 1010.6
20260504210619 66 143 8.7 18.2 0.00 0.00 0.00 38 1010.7
20260504210114 67 177 5.2 13.9 0.00 0.00 0.00 37 1010.6
20260504205612 67 164 0.9 5.2 0.00 0.00 0.00 38 1010.6
20260504205110 65 357 1.7 12.2 0.00 0.00 0.00 38 1010.6
20260504204608 65 167 1.7 13.0 0.00 0.00 0.00 38 1010.5
20260504204107 66 176 7.8 13.0 0.00 0.00 0.00 36 1010.7
20260504203605 66 137 9.6 20.0 0.00 0.00 0.00 37 1010.7
20260504203102 66 142 4.3 13.0 0.00 0.00 0.00 37 1010.2
20260504202557 66 178 5.2 19.1 0.00 0.00 0.00 36 1010.8
20260504202054 66 264 5.2 11.3 0.00 0.00 0.00 35 1010.5
20260504201551 67 57 7.8 12.2 0.00 0.00 0.00 35 1010.6
20260504201049 66 328 2.6 7.0 0.00 0.00 0.00 35 1010.5
20260504200545 67 324 2.6 11.3 0.00 0.00 0.00 36 1010.6
20260504200042 66 234 9.6 13.9 0.00 0.00 0.00 32 1010.6
20260504195538 67 212 12.2 16.5 0.00 0.00 0.00 33 1010.8
20260504195035 67 120 5.2 12.2 0.00 0.00 0.00 34 1010.8
20260504194531 67 103 1.7 9.6 0.00 0.00 0.00 32 1010.5
20260504194026 67 178 7.8 15.6 0.00 0.00 0.00 32 1010.8
20260504193523 67 166 7.0 12.2 0.00 0.00 0.00 32 1010.8
20260504193022 67 187 7.8 16.5 0.00 0.00 0.00 32 1010.7
20260504192520 67 25 1.7 15.6 0.00 0.00 0.00 33 1011.0
20260504192018 67 143 2.6 12.2 0.00 0.00 0.00 32 1010.5
20260504191516 66 176 10.4 13.0 0.00 0.00 0.00 33 1010.8
20260504191012 67 144 1.7 14.8 0.00 0.00 0.00 33 1010.8
20260504190508 67 242 7.0 11.3 0.00 0.00 0.00 32 1010.7
20260504190004 67 308 7.8 14.8 0.00 0.00 0.00 31 1010.8
20260504185501 67 300 7.8 11.3 0.00 0.00 0.00 31 1011.0
20260504184957 66 208 5.2 11.3 0.00 0.00 0.00 32 1010.8
20260504184453 67 172 7.8 18.2 0.00 0.00 0.00 30 1010.9
20260504183949 67 194 5.2 13.9 0.00 0.00 0.00 32 1011.1
20260504183446 67 171 5.2 11.3 0.00 0.00 0.00 30 1011.1
20260504182944 67 212 5.2 7.8 0.00 0.00 0.00 32 1011.0
20260504182440 66 188 6.1 12.2 0.00 0.00 0.00 31 1011.1
20260504181938 67 220 11.3 14.8 0.00 0.00 0.00 31 1011.3
20260504181435 66 317 4.3 14.8 0.00 0.00 0.00 33 1011.4
20260504180934 66 230 7.0 11.3 0.00 0.00 0.00 31 1011.2
20260504180432 67 196 6.1 13.0 0.00 0.00 0.00 31 1011.0
20260504175930 66 197 10.4 15.6 0.00 0.00 0.00 31 1011.5
20260504175427 66 141 7.8 14.8 0.00 0.00 0.00 33 1011.6
20260504174925 65 215 5.2 13.9 0.00 0.00 0.00 34 1011.5
20260504174422 66 224 6.1 16.5 0.00 0.00 0.00 33 1011.4
20260504173919 65 218 9.6 14.8 0.00 0.00 0.00 32 1011.5
20260504173415 66 169 7.0 12.2 0.00 0.00 0.00 31 1011.3
20260504172913 65 314 1.7 6.1 0.00 0.00 0.00 36 1011.2
20260504172409 64 201 9.6 11.3 0.00 0.00 0.00 34 1011.1
20260504171905 65 272 10.4 15.6 0.00 0.00 0.00 31 1011.5
20260504171403 66 205 6.1 20.0 0.00 0.00 0.00 32 1011.2
20260504170859 66 145 8.7 13.9 0.00 0.00 0.00 31 1011.3
20260504170356 65 148 10.4 16.5 0.00 0.00 0.00 31 1011.3
20260504160315 64 186 8.7 14.8 0.00 0.00 0.00 33 1012.2
20260504150739 63 165 13.9 15.6 0.00 0.00 0.00 33 1012.4
20260504150236 63 216 6.1 8.7 0.00 0.00 0.00 34 1012.6
20260504141206 61 198 5.2 9.6 0.00 0.00 0.00 37 1013.2
20260504140703 60 2 3.5 7.8 0.00 0.00 0.00 39 1013.2
20260504140158 59 193 3.5 13.0 0.00 0.00 0.00 40 1013.2
20260504130626 56 195 5.2 7.8 0.00 0.00 0.00 45 1013.7
20260504130123 55 260 3.5 8.7 0.00 0.00 0.00 45 1013.9
20260504110514 46 235 4.3 7.0 0.00 0.00 0.00 56 1013.9
20260504100436 41 317 1.7 2.6 0.00 0.00 0.00 62 1013.9
20260504081829 41 16 0.0 1.7 0.00 0.00 0.00 61 1013.1
20260504081326 41 32 0.0 1.7 0.00 0.00 0.00 61 1013.2
20260504080822 41 41 0.9 0.9 0.00 0.00 0.00 61 1013.3
20260504080320 42 89 0.9 2.6 0.00 0.00 0.00 59 1013.4
20260504070246 43 29 0.0 3.5 0.00 0.00 0.00 57 1013.1
20260504060207 41 18 0.0 0.9 0.00 0.00 0.00 56 1013.0
20260504050635 42 6 0.9 0.9 0.00 0.00 0.00 54 1013.3
20260504050132 42 19 0.0 0.9 0.00 0.00 0.00 55 1013.1
20260504045629 41 22 0.0 0.9 0.00 0.00 0.00 55 1013.4
20260504045129 41 17 0.0 0.9 0.00 0.00 0.00 54 1013.5
20260504044627 41 16 0.0 1.7 0.00 0.00 0.00 56 1013.5
20260504044124 41 23 0.0 0.0 0.00 0.00 0.00 56 1013.6
20260504043621 41 28 0.0 0.9 0.00 0.00 0.00 54 1013.5
20260504043118 41 10 0.0 1.7 0.00 0.00 0.00 55 1013.4
20260504042615 41 24 0.0 0.9 0.00 0.00 0.00 55 1013.3
20260504042112 41 22 0.0 0.0 0.00 0.00 0.00 54 1013.4
20260504041607 42 23 0.0 0.0 0.00 0.00 0.00 55 1013.4
20260504041104 42 20 0.0 0.0 0.00 0.00 0.00 53 1013.3
20260504040602 41 12 0.0 0.9 0.00 0.00 0.00 55 1013.3
20260504040058 41 17 0.0 0.9 0.00 0.00 0.00 55 1013.3
20260504035555 41 17 0.0 0.0 0.00 0.00 0.00 56 1013.2
20260504035051 42 19 0.0 0.9 0.00 0.00 0.00 54 1013.0
20260504034549 41 3 1.7 1.7 0.00 0.00 0.00 56 1013.0
20260504034046 40 25 0.0 0.9 0.00 0.00 0.00 59 1012.9
20260504033544 40 16 0.9 0.9 0.00 0.00 0.00 60 1013.1
20260504033041 39 23 0.0 0.9 0.00 0.00 0.00 60 1013.1
20260504032538 39 18 0.0 0.0 0.00 0.00 0.00 64 1013.1
20260504032035 39 21 0.0 0.0 0.00 0.00 0.00 63 1013.1
20260504031532 38 14 0.9 3.5 0.00 0.00 0.00 64 1012.9
20260504031028 38 20 0.9 0.9 0.00 0.00 0.00 66 1013.0
20260504030525 38 6 0.9 0.9 0.00 0.00 0.00 64 1012.9
20260504030021 38 6 0.0 0.0 0.00 0.00 0.00 65 1012.8
20260504025518 38 6 0.9 0.9 0.00 0.00 0.00 65 1012.6
20260504025015 38 6 0.0 0.9 0.00 0.00 0.00 62 1012.8
20260504024512 38 6 0.0 0.0 0.00 0.00 0.00 63 1012.6
20260504024009 38 6 0.0 0.0 0.00 0.00 0.00 62 1012.8
20260504023506 38 6 0.0 0.0 0.00 0.00 0.00 61 1012.6
20260504023001 38 6 0.0 0.0 0.00 0.00 0.00 61 1012.6
20260504022457 39 6 0.0 0.0 0.00 0.00 0.00 65 1012.8
20260504021954 39 6 0.0 0.0 0.00 0.00 0.00 62 1012.5
20260504021452 39 6 0.0 0.0 0.00 0.00 0.00 63 1012.5
20260504020949 39 6 0.0 0.0 0.00 0.00 0.00 64 1012.4
20260504020445 39 6 0.0 0.0 0.00 0.00 0.00 64 1012.3
20260504015942 39 6 0.0 0.9 0.00 0.00 0.00 65 1012.5
20260504015438 39 6 0.0 0.9 0.00 0.00 0.00 65 1012.4
20260504014934 39 6 0.9 0.9 0.00 0.00 0.00 65 1012.4
20260504014430 39 5 0.9 0.9 0.00 0.00 0.00 64 1012.2
20260504013927 39 7 0.9 0.9 0.00 0.00 0.00 63 1012.2
20260504013426 39 1 0.0 0.0 0.00 0.00 0.00 62 1012.3
20260504012927 39 5 0.0 0.0 0.00 0.00 0.00 62 1012.3
20260504012425 39 2 0.0 0.0 0.00 0.00 0.00 61 1012.3
20260504011922 40 6 0.0 0.0 0.00 0.00 0.00 61 1012.2